Time,TemperatureF,DewpointF,PressureIn,WindDirection,WindDirectionDegrees,WindSpeedMPH,WindSpeedGustMPH,Humidity,HourlyPrecipIn,Conditions,Clouds,dailyrainin,SoftwareType,DateUTC
2013-08-23 00:12:00,57.0,56.0,29.97,NNW,344,0.0,0.0,95,0.00,,,0.00,,2013-08-23 07:12:00,
2013-08-23 00:21:00,56.0,54.0,29.97,West,267,1.0,4.0,94,0.00,,,0.00,,2013-08-23 07:21:00,
2013-08-23 00:52:00,56.0,55.0,29.98,NNW,337,1.0,3.0,95,0.00,,,0.00,,2013-08-23 07:52:00,
2013-08-23 01:12:00,56.0,55.0,29.98,NNW,345,0.0,0.0,96,0.00,,,0.00,,2013-08-23 08:12:00,
2013-08-23 01:22:00,57.0,56.0,29.97,NNW,345,0.0,0.0,95,0.00,,,0.00,,2013-08-23 08:22:00,
2013-08-23 01:42:00,57.0,56.0,29.97,NNW,345,0.0,0.0,95,0.00,,,0.00,,2013-08-23 08:42:00,
2013-08-23 01:52:00,56.0,55.0,29.98,NNW,345,0.0,0.0,95,0.00,,,0.00,,2013-08-23 08:52:00,
2013-08-23 02:11:00,56.0,55.0,29.98,NNW,345,0.0,0.0,95,0.00,,,0.00,,2013-08-23 09:11:00,
2013-08-23 02:21:00,54.0,53.0,29.98,NNW,345,0.0,0.0,95,0.00,,,0.00,,2013-08-23 09:21:00,
2013-08-23 02:43:00,54.0,53.0,29.98,NNW,345,0.0,0.0,95,0.00,,,0.00,,2013-08-23 09:43:00,
2013-08-23 02:53:00,55.0,54.0,29.97,NNW,345,0.0,0.0,96,0.00,,,0.00,,2013-08-23 09:53:00,
2013-08-23 03:13:00,55.0,54.0,29.97,NNW,345,0.0,0.0,96,0.00,,,0.00,,2013-08-23 10:13:00,
2013-08-23 03:22:00,56.0,55.0,29.97,NNW,345,0.0,0.0,96,0.00,,,0.00,,2013-08-23 10:22:00,
2013-08-23 03:42:00,57.0,56.0,29.96,NNW,345,0.0,0.0,96,0.00,,,0.00,,2013-08-23 10:42:00,
2013-08-23 03:52:00,54.0,53.0,29.97,WSW,255,0.0,2.0,95,0.00,,,0.00,,2013-08-23 10:52:00,
2013-08-23 04:11:00,54.0,53.0,29.96,WSW,255,0.0,0.0,96,0.00,,,0.00,,2013-08-23 11:11:00,
2013-08-23 04:22:00,54.0,53.0,29.97,West,269,0.0,0.0,96,0.00,,,0.00,,2013-08-23 11:22:00,
2013-08-23 04:42:00,56.0,55.0,29.97,West,269,0.0,0.0,97,0.00,,,0.00,,2013-08-23 11:42:00,
2013-08-23 04:52:00,56.0,55.0,29.96,ENE,64,0.0,3.0,97,0.00,,,0.00,,2013-08-23 11:52:00,
2013-08-23 05:11:00,56.0,55.0,29.96,WSW,246,0.0,3.0,96,0.00,,,0.00,,2013-08-23 12:11:00,
2013-08-23 05:22:00,55.0,54.0,29.96,West,268,0.0,3.0,96,0.00,,,0.00,,2013-08-23 12:22:00,
2013-08-23 05:42:00,55.0,54.0,29.96,NNW,341,1.0,3.0,96,0.00,,,0.00,,2013-08-23 12:42:00,
2013-08-23 05:52:00,55.0,54.0,29.96,NNW,341,0.0,2.0,96,0.00,,,0.00,,2013-08-23 12:52:00,
2013-08-23 06:11:00,55.0,54.0,29.96,WSW,248,1.0,6.0,96,0.00,,,0.00,,2013-08-23 13:11:00,
2013-08-23 06:22:00,56.0,55.0,29.96,WSW,248,1.0,3.0,97,0.00,,,0.00,,2013-08-23 13:22:00,
2013-08-23 06:42:00,56.0,55.0,29.96,NNW,328,0.0,1.0,97,0.00,,,0.00,,2013-08-23 13:42:00,
2013-08-23 06:52:00,56.0,55.0,29.96,NNW,328,0.0,0.0,97,0.00,,,0.00,,2013-08-23 13:52:00,
2013-08-23 07:12:00,56.0,55.0,29.96,NNW,328,0.0,2.0,96,0.00,,,0.00,,2013-08-23 14:12:00,
2013-08-23 07:21:00,56.0,55.0,29.96,NNW,328,0.0,1.0,97,0.00,,,0.00,,2013-08-23 14:21:00,
2013-08-23 07:42:00,56.0,55.0,29.97,NNW,328,0.0,3.0,97,0.00,,,0.00,,2013-08-23 14:42:00,
2013-08-23 07:52:00,55.0,54.0,29.97,WNW,288,1.0,3.0,97,0.00,,,0.00,,2013-08-23 14:52:00,
2013-08-23 08:11:00,57.0,56.0,29.97,WNW,288,0.0,3.0,97,0.00,,,0.00,,2013-08-23 15:11:00,
2013-08-23 08:22:00,57.0,56.0,29.97,WNW,288,0.0,2.0,97,0.00,,,0.00,,2013-08-23 15:22:00,
2013-08-23 08:43:00,57.0,56.0,29.97,WNW,288,0.0,1.0,97,0.00,,,0.00,,2013-08-23 15:43:00,
2013-08-23 08:54:00,57.0,56.0,29.97,WNW,288,0.0,1.0,97,0.00,,,0.00,,2013-08-23 15:54:00,
2013-08-23 09:13:00,57.0,56.0,29.97,West,267,2.0,5.0,97,0.00,,,0.00,,2013-08-23 16:13:00,
2013-08-23 09:24:00,56.0,55.0,29.97,West,265,1.0,6.0,97,0.00,,,0.00,,2013-08-23 16:24:00,
2013-08-23 09:42:00,57.0,56.0,29.97,WSW,246,0.0,5.0,97,0.00,,,0.00,,2013-08-23 16:42:00,
2013-08-23 09:53:00,57.0,56.0,29.97,West,261,3.0,7.0,97,0.00,,,0.00,,2013-08-23 16:53:00,
2013-08-23 10:13:00,59.0,58.0,29.97,WNW,301,1.0,3.0,97,0.00,,,0.00,,2013-08-23 17:13:00,
2013-08-23 10:23:00,61.0,60.0,29.97,SSW,197,0.0,2.0,95,0.00,,,0.00,,2013-08-23 17:23:00,
2013-08-23 10:42:00,59.0,58.0,29.97,WSW,257,1.0,5.0,95,0.00,,,0.00,,2013-08-23 17:42:00,
2013-08-23 10:53:00,60.0,58.0,29.98,WSW,257,1.0,5.0,94,0.00,,,0.00,,2013-08-23 17:53:00,
2013-08-23 11:12:00,61.0,59.0,29.98,WSW,257,3.0,7.0,94,0.00,,,0.00,,2013-08-23 18:12:00,
2013-08-23 11:22:00,61.0,59.0,29.98,West,271,4.0,8.0,93,0.00,,,0.00,,2013-08-23 18:22:00,
2013-08-23 11:42:00,61.0,59.0,29.98,WSW,253,6.0,8.0,92,0.00,,,0.00,,2013-08-23 18:42:00,
2013-08-23 11:52:00,60.0,58.0,29.99,SW,232,6.0,13.0,93,0.00,,,0.00,,2013-08-23 18:52:00,
2013-08-23 12:11:00,61.0,59.0,30.00,WSW,255,5.0,10.0,93,0.00,,,0.00,,2013-08-23 19:11:00,
2013-08-23 12:21:00,61.0,59.0,30.00,WSW,247,4.0,8.0,92,0.00,,,0.00,,2013-08-23 19:21:00,
2013-08-23 12:42:00,62.0,60.0,30.00,WSW,252,4.0,7.0,92,0.00,,,0.00,,2013-08-23 19:42:00,
2013-08-23 12:52:00,60.0,58.0,30.00,SW,228,4.0,8.0,92,0.00,,,0.00,,2013-08-23 19:52:00,
2013-08-23 13:12:00,60.0,58.0,29.99,WSW,256,5.0,8.0,93,0.00,,,0.00,,2013-08-23 20:12:00,
2013-08-23 13:22:00,60.0,58.0,30.00,WSW,241,4.0,7.0,92,0.00,,,0.00,,2013-08-23 20:22:00,
2013-08-23 13:42:00,61.0,59.0,30.00,SW,234,4.0,9.0,92,0.00,,,0.00,,2013-08-23 20:42:00,
2013-08-23 13:52:00,63.0,60.0,29.99,WSW,240,3.0,6.0,90,0.00,,,0.00,,2013-08-23 20:52:00,
2013-08-23 14:11:00,62.0,59.0,29.99,West,259,3.0,7.0,90,0.00,,,0.00,,2013-08-23 21:11:00,
2013-08-23 14:21:00,62.0,58.0,29.98,WSW,246,6.0,9.0,87,0.00,,,0.00,,2013-08-23 21:21:00,
2013-08-23 14:43:00,60.0,57.0,29.99,West,261,6.0,10.0,89,0.00,,,0.00,,2013-08-23 21:43:00,
2013-08-23 14:54:00,61.0,58.0,29.99,SW,221,5.0,9.0,90,0.00,,,0.00,,2013-08-23 21:54:00,
2013-08-23 15:13:00,62.0,59.0,29.99,West,264,5.0,8.0,89,0.00,,,0.00,,2013-08-23 22:13:00,
2013-08-23 15:24:00,63.0,59.0,29.99,WSW,252,4.0,8.0,88,0.00,,,0.00,,2013-08-23 22:24:00,
2013-08-23 15:43:00,64.0,60.0,29.99,WSW,257,5.0,9.0,87,0.00,,,0.00,,2013-08-23 22:43:00,
2013-08-23 15:53:00,64.0,60.0,29.98,WSW,242,5.0,7.0,86,0.00,,,0.00,,2013-08-23 22:53:00,
2013-08-23 16:12:00,64.0,60.0,29.98,SW,236,4.0,7.0,87,0.00,,,0.00,,2013-08-23 23:12:00,
2013-08-23 16:22:00,62.0,57.0,29.98,WSW,246,6.0,9.0,85,0.00,,,0.00,,2013-08-23 23:22:00,
2013-08-23 16:43:00,62.0,59.0,29.98,West,271,4.0,8.0,89,0.00,,,0.00,,2013-08-23 23:43:00,
2013-08-23 16:54:00,63.0,59.0,29.98,WSW,256,4.0,8.0,88,0.00,,,0.00,,2013-08-23 23:54:00,
2013-08-23 17:11:00,62.0,58.0,29.97,WSW,241,5.0,8.0,88,0.00,,,0.00,,2013-08-24 00:11:00,
2013-08-23 17:21:00,61.0,57.0,29.98,WSW,249,4.0,8.0,88,0.00,,,0.00,,2013-08-24 00:21:00,
2013-08-23 17:43:00,61.0,58.0,29.97,West,262,5.0,8.0,89,0.00,,,0.00,,2013-08-24 00:43:00,
2013-08-23 17:53:00,60.0,57.0,29.97,WSW,245,3.0,7.0,90,0.00,,,0.00,,2013-08-24 00:53:00,
2013-08-23 18:11:00,61.0,58.0,29.97,West,259,3.0,6.0,89,0.00,,,0.00,,2013-08-24 01:11:00,
2013-08-23 18:22:00,61.0,58.0,29.97,SW,231,2.0,6.0,90,0.00,,,0.00,,2013-08-24 01:22:00,
2013-08-23 18:42:00,61.0,58.0,29.97,WSW,246,2.0,5.0,90,0.00,,,0.00,,2013-08-24 01:42:00,
2013-08-23 18:53:00,61.0,58.0,29.96,WSW,257,2.0,5.0,90,0.00,,,0.00,,2013-08-24 01:53:00,
2013-08-23 19:11:00,61.0,58.0,29.96,WSW,245,3.0,5.0,90,0.00,,,0.00,,2013-08-24 02:11:00,
2013-08-23 19:22:00,60.0,57.0,29.96,WSW,246,2.0,4.0,90,0.00,,,0.00,,2013-08-24 02:22:00,
2013-08-23 19:42:00,60.0,57.0,29.96,WSW,246,1.0,3.0,90,0.00,,,0.00,,2013-08-24 02:42:00,
2013-08-23 19:52:00,60.0,57.0,29.96,WSW,246,1.0,3.0,90,0.00,,,0.00,,2013-08-24 02:52:00,
2013-08-23 20:12:00,60.0,57.0,29.96,WSW,246,0.0,1.0,91,0.00,,,0.00,,2013-08-24 03:12:00,
2013-08-23 20:22:00,60.0,57.0,29.96,WSW,246,1.0,2.0,91,0.00,,,0.00,,2013-08-24 03:22:00,
2013-08-23 20:44:00,60.0,57.0,29.95,WSW,246,0.0,3.0,91,0.00,,,0.00,,2013-08-24 03:44:00,
2013-08-23 20:54:00,61.0,59.0,29.95,WSW,246,0.0,2.0,92,0.00,,,0.00,,2013-08-24 03:54:00,
2013-08-23 21:14:00,61.0,59.0,29.96,WSW,246,0.0,2.0,92,0.00,,,0.00,,2013-08-24 04:14:00,
2013-08-23 21:24:00,61.0,59.0,29.96,WSW,246,0.0,2.0,92,0.00,,,0.00,,2013-08-24 04:24:00,
2013-08-23 21:44:00,61.0,59.0,29.96,WSW,246,0.0,1.0,92,0.00,,,0.00,,2013-08-24 04:44:00,
2013-08-23 21:53:00,60.0,57.0,29.96,WSW,246,1.0,3.0,91,0.00,,,0.00,,2013-08-24 04:53:00,
2013-08-23 22:13:00,58.0,56.0,29.96,WSW,246,0.0,0.0,93,0.00,,,0.00,,2013-08-24 05:13:00,
2013-08-23 22:23:00,59.0,57.0,29.96,WSW,246,0.0,0.0,93,0.00,,,0.00,,2013-08-24 05:23:00,
2013-08-23 22:43:00,59.0,57.0,29.96,WSW,246,0.0,0.0,94,0.00,,,0.00,,2013-08-24 05:43:00,
2013-08-23 22:53:00,59.0,57.0,29.95,WSW,246,0.0,0.0,94,0.00,,,0.00,,2013-08-24 05:53:00,
2013-08-23 23:12:00,59.0,57.0,29.96,WSW,246,0.0,0.0,94,0.00,,,0.00,,2013-08-24 06:12:00,
2013-08-23 23:21:00,59.0,57.0,29.95,WSW,246,0.0,0.0,94,0.00,,,0.00,,2013-08-24 06:21:00,
2013-08-23 23:42:00,59.0,57.0,29.95,WSW,246,0.0,0.0,94,0.00,,,0.00,,2013-08-24 06:42:00,
2013-08-23 23:52:00,60.0,58.0,29.95,WSW,246,0.0,0.0,94,0.00,,,0.00,,2013-08-24 06:52:00,